www.pogodaiklimat.ru

Погода и климат >> Архив погоды >> Малайзия >> Kota Kinabalu


ПОГОДА в Kota Kinabalu

  • Прогноз погоды в Kota Kinabalu
  • Монитор погоды в Kota Kinabalu
  • Климат города

АРХИВ ПОГОДЫ в Kota Kinabalu

Время (UTC), дата Ветер
(напр.,м/с)
 
Видим.   Явления Облачность Т
(С)
Тd
(С)
f
(%)
Тe
(С)
Тes
(С)
Комфортность P
(гПа)
Po
(гПа)
Тmin
(С)
Tmax
(С)
R
(мм)
S
(см)
18 20.03 В 2 18 км 8/1 420 м
[Cu Sc Ac lent Cs]
+25.3 +23.2 88 +34 +34 очень
душно
1009.5 1009.2
21 20.03 В 2 18 км 8/1 420 м
[Cu Sc Ac lent Cs]
+24.7 +22.4 87 +32 +32 очень
душно
1009.9 1009.6
00 21.03 В 1 20 км мгла 8/3 420 м
[Cu Sc Ac lent Ci sp]
+27.7 +23.2 77 +37 +40 очень
душно
1011.9 1011.6 +24.3
03 21.03 З 1 20 км мгла 8/3 420 м
[Cu Sc Ac lent Ci sp]
+31.1 +24.9 70 +45 +55 опасность
перегрева
1012.1 1011.8
06 21.03 СЗ 2 20 км мгла 8/3 420 м
[Cu Sc Ac lent Ci sp]
+31.3 +25.4 71 +46 +54 опасность
перегрева
1008.6 1008.3
09 21.03 СЗ 2 18 км осадки на расстоянии 8/3 420 м
[Cb cap Ac lent Cs]
+29.6 +24.5 74 +42 +43 опасность
перегрева
1008.2 1007.9
12 21.03 ЮВ 2 16 км мгла 8/3 420 м
[Cu Sc Ac lent Cs]
+27.6 +22.8 75 +37 +37 очень
душно
1010.4 1010.1 +32.4
15 21.03 В 3 12 км слабый дождь 10/6 420 м
[Cu Sc Ac lent Cs]
+24.7 +21.8 84 +32 +32 очень
душно
1011.6 1011.3
18 21.03 В 3 18 км {дождь} 8/3 420 м
[Cu Sc Ac lent Cs]
+24.1 +20.3 79 +30 +30 очень
душно
1009.4 1009.1 0.6
21 21.03 В 3 18 км 8/3 420 м
[Cu Sc Ac lent Cs]
+23.7 +20.2 81 +29 +29 душно 1009.3 1009.0
00 22.03 В 3 26 км 8/1 450 м
[Cu Sc Ac lent Ci sp]
+26.2 +20.4 70 +32 +34 очень
душно
1010.8 1010.5 +23.3 0.6
03 22.03 СЗ 1 26 км 8/4 420 м
[Cu Sc Ac lent Cs]
+30.5 +25.1 73 +44 +54 опасность
перегрева
1010.5 1010.2
06 22.03 СЗ 2 26 км 8/4 420 м
[Cu Sc Ac lent Cs]
+32.7 +26.4 70 +50 +57 опасность
перегрева
1009.0 1008.7
09 22.03 В 3 10 км слабый дождь 8/4 400 м
[Cu Sc Ac lent Cs]
+25.5 +23.5 89 +35 +35 очень
душно
1009.0 1008.7
12 22.03 ЮВ 2 18 км в посл. час дождь 8/3 420 м
[Cu Sc Ac lent Cs]
+25.5 +23.2 87 +34 +34 очень
душно
1009.9 1009.6 +32.7 2
15 22.03 В 3 18 км 8/3 420 м
[Cu Sc Ac lent Cs]
+24.5 +22.5 89 +32 +32 очень
душно
1011.0 1010.7
18 22.03 В 2 18 км 8/3 420 м
[Cu Sc Ac lent Cs]
+24.0 +22.1 89 +31 +31 очень
душно
1010.0 1009.7
21 22.03 ЮВ 2 18 км 8/3 420 м
[Cu Sc Ac lent Cs]
+23.6 +21.4 87 +30 +30 очень
душно
1009.9 1009.6
00 23.03 В 2 25 км 8/1 420 м
[Cu Sc Ac lent Ci sp]
+26.9 +22.4 76 +35 +37 очень
душно
1011.3 1011.0 +23.4 2
03 23.03 СЗ 3 25 км 8/1 420 м
[Cu Sc Ac lent Ci sp]
+30.5 +25.1 73 +44 +53 опасность
перегрева
1010.9 1010.6
06 23.03 СЗ 3 25 км 8/1 420 м
[Cu Sc Ac lent Ci sp]
+32.0 +25.1 67 +46 +54 опасность
перегрева
1007.6 1007.3
09 23.03 СЗ 3 25 км 8/1 420 м
[Cu Sc Ac lent Ci sp]
+30.9 +25.1 71 +44 +46 опасность
перегрева
1006.6 1006.3
12 23.03 Ю 3 18 км 8/3 420 м
[Cu Sc Ac lent Ci sp]
+29.1 +26.1 84 +44 +44 опасность
перегрева
1008.3 1008.0 +32.4
15 23.03 В 2 18 км 8/3 420 м
[Cu Sc Ac lent Cs]
+27.9 +24.1 80 +39 +39 очень
душно
1009.8 1009.5
18 23.03 В 2 18 км 8/3 420 м
[Cu Sc Ac lent Cs]
+26.4 +23.9 86 +36 +36 очень
душно
1008.5 1008.2
21 23.03 В 2 18 км 8/3 420 м
[Cu Sc Ac lent Cs]
+25.9 +23.4 86 +35 +35 очень
душно
1008.7 1008.4
00 24.03 В 2 20 км 8/3 420 м
[Cu Sc Ac lent Ci sp]
+27.7 +23.6 78 +38 +40 очень
душно
1010.9 1010.6 +25.6
03 24.03 СЗ 2 20 км мгла 8/1 450 м
[Cu Sc Ac lent Ci sp]
+32.7 +27.4 74 +52 +64 опасность
перегрева
1011.6 1011.3
06 24.03 В 4 10 км гроза, ливневой дождь 10/6 400 м
[Cb cap Ac lent Cs]
+25.9 +23.9 89 +36 +38 очень
душно
1009.6 1009.3 0.6
09 24.03 В 3 26 км в посл. час гроза {дождь} 10/6 420 м
[Cu Sc Ac lent Cs]
+27.2 +23.5 80 +37 +37 очень
душно
1008.9 1008.6
12 24.03 ЮВ 2 10 км слабый дождь 10/4 400 м
[Cu Sc Ac lent Cs]
+25.4 +23.8 91 +35 +35 очень
душно
1011.2 1010.9 +33.1 2
15 24.03 Ю 3 18 км {дождь} 10/4 400 м
[Cu Sc Ac lent Cs]
+25.5 +24.2 93 +35 +35 очень
душно
1012.6 1012.3
18 24.03 ЮВ 1 18 км {дождь} 8/3 420 м
[Cu Sc Ac lent Cs]
+24.7 +23.5 93 +33 +33 очень
душно
1010.7 1010.4 0.8
21 24.03 ЮВ 2 18 км 8/3 420 м
[Cu Sc Ac lent Cs]
+24.4 +23.1 92 +32 +32 очень
душно
1010.8 1010.5
00 25.03 В 2 30 км 8/3 420 м
[Cu Sc Ac lent Cs]
+26.3 +23.5 85 +36 +38 очень
душно
1012.9 1012.6 +24.2 3
03 25.03 СЗ 2 30 км 9/1 450 м
[Cu Sc Ac lent Ci sp]
+31.2 +26.2 75 +47 +58 опасность
перегрева
1013.4 1013.1
06 25.03 С 2 15 км гроза без осадков 8/4 420 м
[Cb cap Ac lent Cs]
+29.2 +24.7 77 +42 +49 опасность
перегрева
1010.2 1009.9
09 25.03 С 3 16 км слабый дождь {гроза} 8/4 420 м
[Cb cap Ac lent Cs]
+27.2 +24.7 86 +39 +39 очень
душно
1010.1 1009.8
12 25.03 ЮВ 2 9000 м слабый дождь {гроза} 10/5 400 м
[Cu Sc Ac lent Cs]
+25.1 +23.8 93 +34 +34 очень
душно
1012.4 1012.1 +31.6 3
15 25.03 ЮВ 3 9000 м слабый дождь 8/5 400 м
[Cu Sc Ac lent Cs]
+24.5 +22.9 91 +32 +32 очень
душно
1013.6 1013.3
18 25.03 ЮВ 2 9000 м слабый дождь 8/5 400 м
[Cu Sc Ac lent Cs]
+24.5 +23.2 92 +33 +33 очень
душно
1011.4 1011.1 0.6
21 25.03 В 2 18 км {дождь} 8/4 400 м
[Cu Sc Ac lent Cs]
+24.2 +22.9 92 +32 +32 очень
душно
1010.0 1009.7
00 26.03 В 2 25 км 8/3 450 м
[Cu Sc Ac lent Cs]
+25.7 +23.4 87 +35 +37 очень
душно
1010.5 1010.2 +24.2 4
03 26.03 СЗ 3 25 км 8/4 420 м
[Cu Sc Ac lent Cs]
+31.1 +24.0 66 +43 +50 опасность
перегрева
1011.1 1010.8
06 26.03 ЮЗ 2 25 км 8/4 420 м
[Cu Sc Ac lent Cs]
+31.2 +25.0 70 +45 +52 опасность
перегрева
1009.7 1009.4
09 26.03 ЮЗ 1 25 км 8/4 420 м
[Cu Sc Ac lent Cs]
+30.9 +25.6 73 +45 +46 опасность
перегрева
1008.4 1008.1
12 26.03 ЮЗ 3 18 км 8/3 420 м
[Cu Sc Ac lent Cs]
+29.2 +25.1 79 +42 +42 опасность
перегрева
1010.6 1010.3 +31.5
15 26.03 Ю 3 18 км 8/3 420 м
[Cu Sc Ac lent Cs]
+27.8 +25.1 85 +40 +40 очень
душно
1012.6 1012.3
18 26.03 ЮВ 2 18 км 8/1 420 м
[Cu Sc Ac lent Cs]
+26.3 +24.3 89 +37 +37 очень
душно
1011.4 1011.1
21 26.03 ЮВ 3 18 км зарница 8/3 420 м
[Cb cap Ac lent Cs]
+25.6 +23.6 89 +35 +35 очень
душно
1010.7 1010.4
00 27.03 В 2 28 км 8/3 420 м
[Cu Sc Ac lent Cs]
+28.9 +24.5 77 +41 +43 опасность
перегрева
1012.1 1011.8 +25.3
03 27.03 СЗ 3 28 км 8/4 420 м
[Cb cap Ac lent Cs]
+30.7 +26.0 76 +46 +52 опасность
перегрева
1012.4 1012.1
06 27.03 С 3 25 км слабый дождь 8/6 420 м
[Cb cap Ac lent Cs]
+29.9 +24.9 75 +43 +47 опасность
перегрева
1010.3 1010.0
09 27.03 С 1 25 км {дождь} 10/6 420 м
[Cb cap Ac lent Cs]
+29.4 +25.4 79 +43 +44 опасность
перегрева
1009.9 1009.6
12 27.03 штиль 0 18 км {дождь} 8/4 420 м
[Cu Sc Ac lent Cs]
+27.4 +24.0 82 +38 +38 очень
душно
1011.6 1011.3 +32.0
15 27.03 В 2 18 км 8/3 420 м
[Cu Sc Ac lent Cs]
+26.6 +23.7 84 +36 +36 очень
душно
1012.9 1012.6

 

Местоположение метеостанции Kota Kinabalu (Малайзия): широта 5.93 долгота 116.05 высота над уровнем моря 3 м.

В архиве по умолчанию представлена погода в Kota Kinabalu за последнюю неделю. Архивные данные за месяц целиком и за предыдущие месяцы, начиная с января 2011 года, Вы можете получить, выбрав интересующий диапазон дат из раскрывающегося списка и нажав кнопку "Ввод!".

Внимание! Время в таблицах - всемирное. Для получения местного времени необходимо прибавить поправку, которая в Kota Kinabalu равна 8 ч.

Смотрите также архив погоды в соседних городах и на ближайших метеорологических станциях:

Погода в Labuan (Малайзия) (113 км)
Погода в Brunei Airport (Бруней) (167 км)
Погода в Sandakan (Малайзия) (222 км)
Погода в Longbawan (Индонезия) (248 км)
Погода в Tawau (Малайзия) (274 км)
Погода в Miri (Малайзия) (290 км)
Погода в Tarakan (Индонезия) (334 км)
Погода в Tanjung Selor (Индонезия) (371 км)
Погода в Tanjung Redep (Индонезия) (451 км)
Погода в Bintulu (Малайзия) (452 км)

Пояснения к столбцам:

Ветер - указаны скорость ветра в м/с - средняя за 10 мин, порывы в срок и между сроками (в фигурных скобках) и направление, откуда дует ветер: С - северный, СВ - северо-восточный, В - восточный, ЮВ - юго-восточный, Ю - южный, ЮЗ - юго-западный, З - западный, СЗ - северо-западный.
Видимость - горизонтальная дальность видимости в метрах или километрах. При видимости от 1 до 10 км при отсутствии осадков обычно наблюдается дымка, при ухудшении видимости до 1 км и менее - туман. В сухую погоду видимость может ухудшаться дымом, пылью или мглою.
Явления - указаны атмосферные явления, наблюдавшиеся в срок или в последний час перед сроком; фигурными скобками обозначены явления, наблюдавшиеся между сроками (за 1-3 часа до срока); квадратными скобками обозначены град или гололедные отложения с указанием их диаметра в мм.
Облачность - указаны через наклонную черту общая и нижняя облачность в баллах и высота нижней границы облаков в метрах; квадратными скобками обозначены формы облаков: Ci - перистые, Cs - перисто-слоистые, Cc - перисто-кучевые, Ac - высококучевые, As - высокослоистые, Sc - слоисто-кучевые, Ns - слоисто-дождевые, Cu - кучевые, Cb - кучево-дождевые. Подробнее классификацию облаков см. в Атласе облаков (PDF).
T - Температура воздуха - температура, измеренная на высоте 2 м над землей.
Td - Температура точки росы - температура, при понижении до которой содержащийся в воздухе водяной пар достигнет насыщения.
f - Относительная влажность воздуха - влажноcть воздуха, измеренная на высоте 2 м над землей.
Te - Эффективная температура - температура, которую ощущает одетый по сезону человек в тени. Характеристика душности погоды. При расчете учитывается влияние влажности воздуха и скорости ветра на теплоощущения человека.
Tes - Эффективная температура на солнце - температура, которую ощущает человек, с поправкой на солнечный нагрев. Характеристика знойности погоды. Зависит от высоты солнца над горизонтом, облачности и скорости ветра. Ночью, в пасмурную погоду, а также при ветре 12 м/с и более поправка равна нулю.
P - Атмосферное давление - приведенное к уровню моря атмосферное давление.
Po - Атмосферное давление - измеренное на уровне метеостанции атмосферное давление.
Tmin - Минимальная температура - минимум температуры воздуха на высоте 2 м над землей.
Tmax - Максимальная температура - максимум температуры воздуха на высоте 2 м над землей.
R - Количество осадков - Количество выпавших осадков, мм. При наведении курсора мыши на число - период времени, за который выпало указанное количество осадков.
S - Снежный покров - Высота снежного покрова, см. При наведении курсора мыши на число - состояние снежного покрова и степень покрытия местности в баллах.